Starlink 30318

operational
NORAD ID: 57711 Int'l Des: 2023-129 Owner: SPXS Country: US Constellation: starlink
LEOCIRCULAR

Über Starlink 30318

Beschreibung wird geladen...

Live-Position

3D-Globus wird geladen...

Nächste Überflüge

Höhenverlauf

Altitude vs Time

uPlot chart will show altitude changes over time

Zweizeiliger Elementsatz

1 57711U 23129P 26037.12842631 .00000414 00000-0 45680-4 0 9999
2 57711 43.0024 292.0484 0000898 288.4163 71.6582 15.02543244135763
Epoch: 6. Feb. 2026 • Age: 11 hours

Aktueller Status

Höhe 558.8 km
Geschwindigkeit 7.59 km/s
Subsatellitenpunkt 22.41°N, 37.16°W
Startdatum 27. Aug. 2023
Alter 2.4 years
Typ internet

Technische Details

Klassifizierung Payload
Masse 730.00 kg
Trockenmasse 700.00 kg
Gesamtmasse 730.00 kg
Länge 0.30 m
Durchmesser 4.10 m
Spannweite 29.00 m
Form Box + pan
Hersteller SPXS
Bus-Typ Starlink V2M
Phasenstatus In Orbit
Besitzer/Staat SPXS/US

Große Konstellationen

Loading constellations...